{"data":{"norad_id":62999,"epoch":"2026-05-24T20:15:04.028832Z","epoch_age_seconds":81848,"freshness":"FRESH","line1":"1 62999U 25031U   26144.84379663  .00016108  00000+0  59331-3 0  9998","line2":"2 62999  43.0031  73.1163 0000584 289.9441  70.1348 15.27595423 72749","mean_motion":15.27595423,"eccentricity":5.84e-5,"inclination_deg":43.0031,"raan_deg":73.1163,"arg_perigee_deg":289.9441,"mean_anomaly_deg":70.1348,"bstar":0.00059331,"rev_number":7274,"period_min":94.265796972082,"perigee_km":482.60222384681,"apogee_km":483.40360498881,"semimajor_km":6861.1399144178,"source":"CELESTRAK","updated_at":"2026-05-25T13:38:19.833938Z"}}